Flag for Canada Weather past 2 weeks in Rothesay, New Brunswick, Canada

Now
57 °F

Fog.


Feels Like: 54 °F
Forecast: 56 / 65 °F
Wind: 15 mph from Southwest

Location: Saint John

Current Time: Aug 31, 2014 at 3:39:48 AM

Latest Report: Aug 31, 2014 at 3:00 AM


Visibility: 6 mi

Pressure: 30.12 "Hg

Humidity: 100%

Dew point: 57 °F

Location of RothesayLocation

Historic Weather in Rothesay — Graph

°F

Rothesay temperature yesterday

Maximum temperature yesterday: 68 °F (at 1:00 PM)
Minimum temperature yesterday: 37 °F (at 5:00 AM)
Average temperature yesterday: 54 °F

Past Weeks' High & Low Weather Summary

 TemperatureHumidityPressure
High81 °F (Aug 20, 3:00 PM)100% (Aug 16, 2:00 AM)30.30 "Hg (Aug 16, 2:00 AM)
Low37 °F (Aug 30, 5:00 AM)39% (Aug 28, 4:00 PM)29.65 "Hg (Aug 18, 4:00 PM)
Average62 °F84%30.00 "Hg
* Reported Aug 16 2:00 AM — Aug 31 2:00 AM, Rothesay, Weather by CustomWeather, © 2014

Note: Actual official high and low records may vary slightly from our data, if they occured in-between our weather recording intervals... More about our weather records

Advertising

Rothesay weather history for previous 24 hours

 ConditionsComfort  
Time TempWeatherWind HumidityBarometerVisibility
2:00 AM
Aug 31
57 °FFog.10 mph94%30.13 "Hg2 mi
1:45 AM57 °FFog.15 mph94%30.13 "Hg3 mi
1:12 AM57 °FFog.16 mph94%30.14 "Hg5 mi
12:00 AM57 °FPassing clouds.15 mph88%30.14 "Hg15 mi
11:00 PM
Aug 30
55 °FPartly cloudy.15 mph94%30.15 "Hg15 mi
10:00 PM55 °FMostly cloudy.15 mph94%30.16 "Hg15 mi
9:00 PM57 °FMore clouds than sun.13 mph88%30.17 "Hg15 mi
8:00 PM57 °FMore clouds than sun.17 mph88%30.17 "Hg15 mi
7:00 PM59 °FMostly cloudy.15 mph82%30.18 "Hg15 mi
6:00 PM61 °FPartly sunny.18 mph77%30.19 "Hg15 mi
5:00 PM64 °FPartly sunny.16 mph68%30.21 "Hg15 mi
4:00 PM64 °FPartly sunny.23 mph64%30.21 "Hg15 mi
3:00 PM63 °FOvercast.20 mph73%30.23 "Hg15 mi
2:00 PM66 °FPartly sunny.17 mph64%30.25 "Hg15 mi
1:00 PM68 °FPartly sunny.17 mph60%30.27 "Hg15 mi
12:00 PM64 °FOvercast.15 mph60%30.28 "Hg15 mi
11:00 AM64 °FPartly sunny.13 mph60%30.29 "Hg15 mi
10:00 AM63 °FPartly sunny.9 mph73%30.29 "Hg15 mi
9:00 AM59 °FPartly sunny.12 mph82%30.29 "Hg15 mi
8:00 AM46 °FPartly sunny.No wind100%30.30 "Hg15 mi
7:00 AM37 °FFog.No wind100%30.30 "Hg15 mi
6:00 AM37 °FPassing clouds.No wind100%30.29 "Hg15 mi
5:00 AM37 °FClear.No wind100%30.28 "Hg15 mi
4:00 AM39 °FClear.No wind93%30.28 "Hg15 mi
3:00 AM39 °FClear.No wind100%30.29 "Hg15 mi
Weather by CustomWeather, © 2014

See weather overviewHow to use our weather pages